Location: Aix-en-Ergny
(50.5839°N, 1.9996°E)
Time: 06:28:51
(UTC+00:00)

Cosmos 1626 Rocket - Pass Details

Date: 23 October 2019
Orbit: 604 x 630 km, 82.5° (Epoch: 10 November)

Event Time Altitude Azimuth Distance (km) Brightness Sun altitude
Rises 05:32:37 0° 200° (SSW) 2,847 6.8 -9.3°
Reaches altitude 10° 05:34:51 10° 204° (SSW) 1,949 5.9 -9.0°
Maximum altitude 05:39:05 56° 283° (WNW) 724 3.6 -8.3°
Drops below altitude 10° 05:43:23 10° 3° (N) 1,973 6.1 -7.6°
Sets 05:45:40 0° 8° (N) 2,886 7.0 -7.3°
